Current Weather Conditions: station 62302

sailwx.info

Last reported at 2019-Nov-01 09:57 UTC.
Time now 2019-Dec-11 17:15 UTC

Location: N 60°42' W 002°24'.
View on Google Maps.

See reports from other nearby stations

  
Tides and Currents Weather Stations Pressure Air Temp Water Temp Dewpoint Dewpoint Depression Visibility Wind Speed Wind Dir Waves Ship Positions
date/time (UTC)wind fromknots sea level pressurealtimeterstation pressurevisibilityair tempwater tempwave heightnotes
2019-Dec-11 16:00 230 1.1 2.8 8.3 8.5
2019-Dec-11 15:00 220 5.4 5.1 8.8 8.6
2019-Dec-11 14:00 210 5.4 4.4 8.7 9.3
2019-Dec-11 13:00 210 2.2 4.8 8.9 8.1
2019-Dec-11 12:00 210 10.8 4.4 8.8 7.9
2019-Dec-11 11:00 210 1.1 3.1 8.6 7.9
2019-Dec-11 10:00 220 5.4 3.9 9.0 8.4
2019-Dec-11 09:00 210 5.4 5.0 9.1 7.7
2019-Dec-11 08:00 220 10.8 4.8 8.9 7.3
2019-Dec-11 07:00 230 5.4 6.3 9.2 7.5
2019-Dec-11 06:00 220 5.4 6.2 9.3 6.5
2019-Dec-11 05:00 230 2.2 6.4 9.3 6.4
2019-Dec-11 04:00 220 2.2 5.4 9.3 6.8
2019-Dec-11 03:00 230 2.2 5.2 9.2 6.2
2019-Dec-11 02:00 240 5.4 4.9 9.2 6.0
2019-Dec-11 01:00 240 5.4 5.0 9.1 6.0
2019-Dec-11 00:00 240 5.4 6.6 9.5 5.7
2019-Dec-10 23:00 250 5.4 5.8 9.3 5.4
2019-Dec-10 22:00 240 10.8 5.3 9.4 5.7
2019-Dec-10 21:00 230 5.4 6.6 9.4 5.0
2019-Dec-10 20:00 230 10.8 6.0 9.4 5.6
2019-Dec-10 19:00 240 5.4 5.9 9.5 5.3
2019-Dec-10 18:00 230 10.8 5.9 9.5 5.8
2019-Dec-10 17:00 250 10.8 6.1 9.5 6.2
2019-Dec-10 16:00 240 6.1 9.7 7.0
2019-Dec-10 15:00 190 1.1 8.110.2 6.5
2019-Dec-10 14:00 180 2.2 7.510.1 6.4
2019-Dec-10 13:00 180 2.2 6.510.0 6.1
2019-Dec-10 12:00 180 1.1 6.1 9.9 6.5
2019-Dec-10 11:00 180 1.1 6.0 9.8 6.3
2019-Dec-10 10:00 180 1.1 5.5 9.8 6.4
2019-Dec-10 09:00 180 1.1 4.8 9.6 5.8
2019-Dec-10 08:00 170 0.5 4.6 9.6 4.9
2019-Dec-10 07:00 170 1.1 5.9 9.6 5.0
2019-Dec-10 06:00 180 1.1 5.9 9.6 4.7
2019-Dec-10 05:00 180 5.4 7.2 9.6 4.6
2019-Dec-10 04:00 170 5.4 6.9 9.5 4.4
2019-Dec-10 03:00 170 2.2 5.8 9.2 4.6
2019-Dec-10 02:00 170 2.2 4.4 9.1 4.1
2019-Dec-10 01:00 170 2.2 3.1 8.9 4.4
2019-Dec-10 00:00 180 2.2 3.0 8.8 3.9
2019-Dec-09 23:00 170 10.8 4.2 9.0 3.9
2019-Dec-09 22:00 170 10.8 4.4 9.0 4.4
2019-Dec-09 21:00 170 10.8 4.0 8.9 4.5
2019-Dec-09 20:00 180 10.8 3.8 8.9 4.7
2019-Dec-09 19:00 230 10.8 3.7 8.8 4.5
2019-Dec-09 18:00 310 10.8 3.5 8.8 4.8
2019-Dec-09 17:00 320 10.8 3.5 8.7 5.3